KB1WCR Weather Reports


time (UTC)temp
C
wind
direction
speed
KPH
gust
KPH
rain 1hr
cm
rain 24hr
cm
rain mn
cm
humidity
%
barometer
mb
20260505223142 20 229 4.8 6.4 0.00 0.00 0.00 61 1004.2
20260505222633 20 236 11.3 16.1 0.00 0.00 0.00 60 1004.3
20260505222129 20 211 4.8 9.7 0.00 0.00 0.00 60 1004.1
20260505221626 20 187 11.3 16.1 0.00 0.00 0.00 59 1004.1
20260505221123 20 187 4.8 4.8 0.00 0.00 0.00 60 1004.1
20260505220621 21 237 4.8 6.4 0.00 0.00 0.00 59 1004.1
20260505220118 21 126 6.4 14.5 0.00 0.00 0.00 58 1004.3
20260505215616 21 210 3.2 6.4 0.00 0.00 0.00 59 1004.0
20260505215114 21 158 4.8 6.4 0.00 0.00 0.00 59 1004.0
20260505214612 21 167 1.6 3.2 0.00 0.00 0.00 59 1003.8
20260505214108 21 223 11.3 16.1 0.00 0.00 0.00 58 1004.0
20260505213606 22 268 1.6 1.6 0.00 0.00 0.00 56 1003.8
20260505213102 22 144 9.7 12.9 0.00 0.00 0.00 55 1003.7
20260505212558 22 204 9.7 12.9 0.00 0.00 0.00 55 1003.8
20260505212056 22 186 11.3 16.1 0.00 0.00 0.00 55 1003.6
20260505211553 22 201 9.7 12.9 0.00 0.00 0.00 55 1003.5
20260505211050 22 190 8.0 9.7 0.00 0.00 0.00 55 1003.2
20260505210546 22 208 6.4 9.7 0.00 0.00 0.00 54 1003.5
20260505210044 22 204 4.8 6.4 0.00 0.00 0.00 55 1003.5
20260505205541 22 241 0.0 1.6 0.00 0.00 0.00 55 1003.5
20260505205038 23 221 6.4 9.7 0.00 0.00 0.00 55 1003.4
20260505204536 23 28 6.4 9.7 0.00 0.00 0.00 53 1003.5
20260505204033 23 244 4.8 4.8 0.00 0.00 0.00 54 1003.4
20260505203529 23 215 9.7 12.9 0.00 0.00 0.00 55 1003.6
20260505203027 23 210 4.8 4.8 0.00 0.00 0.00 53 1003.7
20260505202523 23 198 9.7 17.7 0.00 0.00 0.00 54 1003.7
20260505202018 23 333 8.0 12.9 0.00 0.00 0.00 54 1003.6
20260505201516 23 114 3.2 4.8 0.00 0.00 0.00 57 1003.5
20260505201013 23 220 6.4 11.3 0.00 0.00 0.00 56 1003.7
20260505200511 22 211 11.3 16.1 0.00 0.00 0.00 55 1003.9
20260505200008 23 145 9.7 24.1 0.00 0.00 0.00 55 1003.8
20260505195504 23 204 9.7 12.9 0.00 0.00 0.00 54 1003.9
20260505195001 23 174 11.3 14.5 0.00 0.00 0.00 54 1003.9
20260505194459 23 237 12.9 17.7 0.00 0.00 0.00 53 1004.1
20260505193958 23 238 4.8 9.7 0.00 0.00 0.00 53 1004.1
20260505193456 24 191 14.5 24.1 0.00 0.00 0.00 51 1004.2
20260505192953 24 187 6.4 9.7 0.00 0.00 0.00 51 1004.0
20260505192452 24 222 6.4 6.4 0.00 0.00 0.00 52 1004.0
20260505191949 24 111 8.0 11.3 0.00 0.00 0.00 51 1004.3
20260505191448 24 232 14.5 17.7 0.00 0.00 0.00 50 1004.3
20260505190944 25 147 11.3 14.5 0.00 0.00 0.00 50 1004.4
20260505190439 25 252 12.9 17.7 0.00 0.00 0.00 50 1004.6
20260505185935 25 212 4.8 4.8 0.00 0.00 0.00 53 1004.6
20260505185433 25 271 9.7 12.9 0.00 0.00 0.00 51 1004.7
20260505184929 25 126 6.4 9.7 0.00 0.00 0.00 51 1004.7
20260505184426 25 133 1.6 1.6 0.00 0.00 0.00 51 1004.7
20260505183922 25 176 6.4 9.7 0.00 0.00 0.00 53 1004.8
20260505183419 25 114 1.6 3.2 0.00 0.00 0.00 52 1004.9
20260505182916 24 240 8.0 14.5 0.00 0.00 0.00 54 1004.8
20260505182413 24 158 4.8 6.4 0.00 0.00 0.00 53 1004.6
20260505181909 25 282 4.8 6.4 0.00 0.00 0.00 54 1005.0
20260505181407 25 223 6.4 9.7 0.00 0.00 0.00 56 1005.0
20260505180903 24 222 6.4 11.3 0.00 0.00 0.00 55 1005.0
20260505180400 23 236 1.6 1.6 0.00 0.00 0.00 57 1005.0
20260505175856 23 251 1.6 3.2 0.00 0.00 0.00 57 1005.1
20260505175353 23 84 4.8 6.4 0.00 0.00 0.00 56 1005.1
20260505174849 23 230 3.2 4.8 0.00 0.00 0.00 54 1005.3
20260505174347 23 221 4.8 6.4 0.00 0.00 0.00 56 1005.3
20260505173843 23 200 6.4 9.7 0.00 0.00 0.00 55 1005.0
20260505173339 24 310 8.0 9.7 0.00 0.00 0.00 57 1005.3
20260505172836 24 197 6.4 11.3 0.00 0.00 0.00 53 1005.5
20260505172334 25 349 4.8 6.4 0.00 0.00 0.00 52 1005.4
20260505171834 25 230 3.2 3.2 0.00 0.00 0.00 53 1005.5
20260505171331 25 272 8.0 9.7 0.00 0.00 0.00 52 1005.5
20260505170827 25 235 4.8 6.4 0.00 0.00 0.00 51 1005.7
20260505170324 25 164 4.8 4.8 0.00 0.00 0.00 55 1005.8
20260505165820 25 232 3.2 4.8 0.00 0.00 0.00 53 1006.0
20260505165315 25 145 4.8 6.4 0.00 0.00 0.00 53 1005.9
20260505164811 25 271 9.7 11.3 0.00 0.00 0.00 50 1006.0
20260505164308 26 189 9.7 11.3 0.00 0.00 0.00 50 1006.1
20260505163806 25 222 6.4 6.4 0.00 0.00 0.00 48 1006.3
20260505163305 25 239 6.4 9.7 0.00 0.00 0.00 48 1006.3
20260505162803 25 255 4.8 4.8 0.00 0.00 0.00 50 1006.3
20260505162259 25 272 6.4 9.7 0.00 0.00 0.00 49 1006.5
20260505161756 25 51 9.7 14.5 0.00 0.00 0.00 50 1006.8
20260505161253 24 282 11.3 12.9 0.00 0.00 0.00 50 1006.8
20260505160750 24 180 4.8 6.4 0.00 0.00 0.00 51 1007.0
20260505160248 23 275 4.8 4.8 0.00 0.00 0.00 53 1007.2
20260505153227 23 205 4.8 6.4 0.00 0.00 0.00 54 1007.6
20260505152724 23 302 6.4 6.4 0.00 0.00 0.00 50 1007.5
20260505152221 23 230 8.0 11.3 0.00 0.00 0.00 51 1007.6
20260505151715 22 241 1.6 3.2 0.00 0.00 0.00 54 1007.6
20260505151213 23 209 4.8 4.8 0.00 0.00 0.00 52 1008.0
20260505150709 22 228 3.2 4.8 0.00 0.00 0.00 53 1007.9
20260505150207 22 194 3.2 3.2 0.00 0.00 0.00 52 1007.9
20260505140639 20 267 1.6 3.2 0.00 0.00 0.00 56 1007.3
20260505140137 20 215 3.2 3.2 0.00 0.00 0.00 56 1007.3
20260505124550 17 234 6.4 6.4 0.00 0.00 0.00 62 1008.0
20260505124046 17 286 3.2 4.8 0.00 0.00 0.00 64 1007.9
20260505123543 16 216 4.8 6.4 0.00 0.00 0.00 65 1007.8
20260505123039 16 228 3.2 4.8 0.00 0.00 0.00 68 1007.9
20260505122536 16 222 3.2 4.8 0.00 0.00 0.00 67 1007.9
20260505122033 16 188 6.4 9.7 0.00 0.00 0.00 65 1007.7
20260505121529 15 197 3.2 3.2 0.00 0.00 0.00 69 1007.7
20260505121026 15 243 3.2 3.2 0.00 0.00 0.00 68 1007.9
20260505120522 15 204 4.8 6.4 0.00 0.00 0.00 68 1008.0
20260505120018 15 217 1.6 3.2 0.00 0.00 0.00 69 1008.0
20260505115513 15 226 1.6 3.2 0.00 0.00 0.00 69 1008.2
20260505115011 14 242 4.8 4.8 0.00 0.00 0.00 69 1008.2
20260505114508 14 209 3.2 3.2 0.00 0.00 0.00 72 1008.3
20260505114004 13 282 3.2 3.2 0.00 0.00 0.00 71 1008.2
20260505113500 13 256 1.6 1.6 0.00 0.00 0.00 72 1008.2
20260505112956 13 286 3.2 3.2 0.00 0.00 0.00 72 1008.2
20260505112453 13 322 0.0 0.0 0.00 0.00 0.00 74 1008.5
20260505111950 13 125 0.0 1.6 0.00 0.00 0.00 74 1008.5
20260505111444 12 240 1.6 3.2 0.00 0.00 0.00 74 1008.5
20260505110941 13 290 0.0 0.0 0.00 0.00 0.00 75 1008.1
20260505110438 12 298 0.0 0.0 0.00 0.00 0.00 76 1008.4
20260505101909 7 289 0.0 0.0 0.00 0.00 0.00 89 1008.5
20260505101403 7 293 0.0 0.0 0.00 0.00 0.00 88 1008.3
20260505100859 8 296 0.0 0.0 0.00 0.00 0.00 88 1008.5
20260505100356 7 302 0.0 0.0 0.00 0.00 0.00 88 1008.3
20260505095852 7 288 0.0 0.0 0.00 0.00 0.00 89 1008.2
20260505095350 7 303 0.0 0.0 0.00 0.00 0.00 90 1008.2
20260505094845 7 300 0.0 0.0 0.00 0.00 0.00 89 1008.4
20260505094342 7 287 0.0 0.0 0.00 0.00 0.00 89 1008.4
20260505093838 7 282 0.0 0.0 0.00 0.00 0.00 89 1008.1
20260505093336 7 280 0.0 0.0 0.00 0.00 0.00 88 1008.4
20260505092833 7 290 0.0 0.0 0.00 0.00 0.00 87 1008.2
20260505092331 7 286 0.0 0.0 0.00 0.00 0.00 87 1008.3
20260505091828 8 310 0.0 0.0 0.00 0.00 0.00 85 1008.3
20260505091326 8 353 0.0 0.0 0.00 0.00 0.00 86 1008.3
20260505090824 7 306 0.0 0.0 0.00 0.00 0.00 88 1008.6
20260505090322 7 302 0.0 0.0 0.00 0.00 0.00 89 1008.3
20260505085818 6 299 0.0 0.0 0.00 0.00 0.00 90 1008.3
20260505085317 7 290 0.0 0.0 0.00 0.00 0.00 89 1008.3
20260505084814 7 294 0.0 0.0 0.00 0.00 0.00 89 1008.5
20260505084313 7 301 0.0 0.0 0.00 0.00 0.00 89 1008.4
20260505083809 7 282 0.0 0.0 0.00 0.00 0.00 89 1008.7
20260505083306 7 296 0.0 0.0 0.00 0.00 0.00 87 1008.7
20260505082803 7 329 0.0 0.0 0.00 0.00 0.00 86 1008.6
20260505082259 7 311 0.0 0.0 0.00 0.00 0.00 86 1008.6
20260505081755 8 306 0.0 0.0 0.00 0.00 0.00 84 1008.7
20260505081252 8 313 0.0 0.0 0.00 0.00 0.00 84 1008.7
20260505080749 8 307 0.0 0.0 0.00 0.00 0.00 83 1008.8
20260505080245 8 300 0.0 0.0 0.00 0.00 0.00 82 1008.7
20260505075740 8 336 0.0 0.0 0.00 0.00 0.00 81 1008.9
20260505075238 9 139 1.6 3.2 0.00 0.00 0.00 80 1008.7
20260505074735 10 313 0.0 0.0 0.00 0.00 0.00 79 1008.9
20260505074232 10 356 0.0 0.0 0.00 0.00 0.00 77 1008.7
20260505073730 10 357 0.0 0.0 0.00 0.00 0.00 76 1008.6
20260505073227 10 344 0.0 1.6 0.00 0.00 0.00 76 1008.8
20260505072724 10 309 0.0 1.6 0.00 0.00 0.00 75 1008.8
20260505072220 11 301 0.0 0.0 0.00 0.00 0.00 74 1008.7
20260505071716 11 283 0.0 0.0 0.00 0.00 0.00 72 1008.6
20260505071213 11 168 0.0 0.0 0.00 0.00 0.00 71 1008.7
20260505070711 11 287 0.0 0.0 0.00 0.00 0.00 70 1008.6
20260505070207 12 317 0.0 1.6 0.00 0.00 0.00 69 1008.6
20260505065703 12 303 0.0 0.0 0.00 0.00 0.00 69 1008.6
20260505065200 12 234 0.0 0.0 0.00 0.00 0.00 68 1008.4
20260505064656 12 246 1.6 1.6 0.00 0.00 0.00 67 1008.6
20260505064155 13 275 1.6 1.6 0.00 0.00 0.00 66 1008.4
20260505063652 13 228 1.6 3.2 0.00 0.00 0.00 65 1008.7
20260505063148 13 210 3.2 4.8 0.00 0.00 0.00 65 1008.5
20260505062644 13 248 1.6 3.2 0.00 0.00 0.00 65 1008.5
20260505062142 13 220 1.6 3.2 0.00 0.00 0.00 64 1008.6
20260505061639 13 260 1.6 1.6 0.00 0.00 0.00 66 1008.6
20260505061137 13 219 1.6 1.6 0.00 0.00 0.00 65 1008.6
20260505060634 13 230 1.6 1.6 0.00 0.00 0.00 64 1008.5
20260505060130 13 195 3.2 3.2 0.00 0.00 0.00 64 1008.5
20260505055626 13 209 3.2 3.2 0.00 0.00 0.00 63 1008.7
20260505055123 13 230 3.2 3.2 0.00 0.00 0.00 63 1008.4
20260505054620 13 241 3.2 3.2 0.00 0.00 0.00 63 1008.6
20260505054118 14 220 4.8 4.8 0.00 0.00 0.00 62 1008.6
20260505053615 14 229 3.2 3.2 0.00 0.00 0.00 62 1008.7
20260505053111 14 240 3.2 3.2 0.00 0.00 0.00 61 1008.4
20260505052608 14 231 1.6 1.6 0.00 0.00 0.00 61 1008.2
20260505052106 14 209 3.2 4.8 0.00 0.00 0.00 62 1008.5
20260505051603 14 235 3.2 3.2 0.00 0.00 0.00 62 1008.4
20260505051101 14 245 3.2 4.8 0.00 0.00 0.00 62 1008.5
20260505050558 14 246 1.6 1.6 0.00 0.00 0.00 62 1008.6
20260505041526 15 223 3.2 4.8 0.00 0.00 0.00 62 1008.1
20260505041024 14 235 3.2 4.8 0.00 0.00 0.00 61 1008.0
20260505040521 15 209 3.2 3.2 0.00 0.00 0.00 62 1007.9
20260505040018 14 206 4.8 4.8 0.00 0.00 0.00 61 1008.0
20260505035514 14 214 3.2 3.2 0.00 0.00 0.00 61 1007.8
20260505035011 14 213 3.2 4.8 0.00 0.00 0.00 61 1008.0
20260505034507 14 232 3.2 3.2 0.00 0.00 0.00 61 1007.9
20260505034005 14 223 3.2 4.8 0.00 0.00 0.00 61 1007.9
20260505033501 13 250 4.8 4.8 0.00 0.00 0.00 63 1007.9
20260505033000 13 220 3.2 4.8 0.00 0.00 0.00 62 1007.8
20260505032457 13 198 4.8 4.8 0.00 0.00 0.00 63 1007.8
20260505031953 13 200 3.2 4.8 0.00 0.00 0.00 64 1007.8
20260505031450 13 215 6.4 6.4 0.00 0.00 0.00 64 1007.8
20260505030947 12 275 1.6 1.6 0.00 0.00 0.00 68 1007.8
20260505030443 11 280 1.6 1.6 0.00 0.00 0.00 75 1007.5
20260505025938 10 244 0.0 0.0 0.00 0.00 0.00 78 1007.8
20260505025435 10 61 1.6 1.6 0.00 0.00 0.00 78 1007.7
20260505024934 10 16 0.0 0.0 0.00 0.00 0.00 77 1007.8
20260505024431 10 247 0.0 0.0 0.00 0.00 0.00 77 1007.8
20260505023928 10 313 0.0 0.0 0.00 0.00 0.00 77 1007.6
20260505023425 10 292 0.0 0.0 0.00 0.00 0.00 78 1007.6
20260505022923 10 305 0.0 0.0 0.00 0.00 0.00 78 1007.7
20260505022421 10 294 0.0 0.0 0.00 0.00 0.00 77 1007.5
20260505021917 10 288 0.0 0.0 0.00 0.00 0.00 78 1007.5
20260505021413 10 299 0.0 0.0 0.00 0.00 0.00 78 1007.5
20260505020909 10 240 0.0 0.0 0.00 0.00 0.00 76 1007.3
20260505020405 10 324 0.0 0.0 0.00 0.00 0.00 76 1007.4
20260505015902 10 290 0.0 0.0 0.00 0.00 0.00 76 1007.2
20260505015359 10 294 0.0 0.0 0.00 0.00 0.00 76 1007.3
20260505014856 10 291 0.0 0.0 0.00 0.00 0.00 75 1007.3
20260505014353 10 313 0.0 0.0 0.00 0.00 0.00 74 1007.2
20260505013850 10 286 0.0 0.0 0.00 0.00 0.00 74 1007.2
20260505013347 10 299 0.0 0.0 0.00 0.00 0.00 73 1007.1
20260505012845 11 298 0.0 0.0 0.00 0.00 0.00 73 1007.0
20260505012343 11 296 0.0 0.0 0.00 0.00 0.00 73 1007.0
20260505011839 11 303 0.0 0.0 0.00 0.00 0.00 71 1006.8
20260505011336 11 305 0.0 0.0 0.00 0.00 0.00 70 1007.0
20260505010832 11 309 0.0 0.0 0.00 0.00 0.00 68 1006.8
20260505010327 11 298 0.0 0.0 0.00 0.00 0.00 70 1006.8
20260505005824 11 290 0.0 0.0 0.00 0.00 0.00 70 1006.8
20260505005321 11 296 0.0 0.0 0.00 0.00 0.00 68 1006.7
20260505004819 11 292 0.0 0.0 0.00 0.00 0.00 67 1006.6
20260505004315 12 285 0.0 0.0 0.00 0.00 0.00 65 1006.5
20260505003812 12 291 0.0 0.0 0.00 0.00 0.00 63 1006.4
20260505003309 13 296 0.0 0.0 0.00 0.00 0.00 63 1006.4
20260505002805 13 296 0.0 0.0 0.00 0.00 0.00 60 1006.3
20260505002304 14 285 0.0 0.0 0.00 0.00 0.00 57 1006.0
20260505001801 15 285 0.0 0.0 0.00 0.00 0.00 55 1006.2
20260505001257 15 284 0.0 0.0 0.00 0.00 0.00 53 1005.9
20260505000755 16 274 0.0 0.0 0.00 0.00 0.00 51 1006.0
20260505000252 16 277 0.0 0.0 0.00 0.00 0.00 49 1005.9
20260504235749 17 287 0.0 0.0 0.00 0.00 0.00 48 1006.2
20260504235245 17 274 0.0 0.0 0.00 0.00 0.00 46 1005.9
20260504234742 17 300 3.2 3.2 0.00 0.00 0.00 45 1005.8
20260504234240 17 272 3.2 3.2 0.00 0.00 0.00 45 1005.7
20260504233736 18 287 1.6 1.6 0.00 0.00 0.00 45 1005.8
20260504233232 18 269 1.6 1.6 0.00 0.00 0.00 44 1005.6
20260504232729 18 283 0.0 1.6 0.00 0.00 0.00 43 1005.6
20260504232226 18 264 3.2 3.2 0.00 0.00 0.00 42 1005.4
20260504231723 19 245 3.2 3.2 0.00 0.00 0.00 42 1005.5
20260504231219 19 259 1.6 1.6 0.00 0.00 0.00 42 1005.2
20260504230715 19 196 8.0 11.3 0.00 0.00 0.00 41 1005.4
20260504230214 20 236 3.2 3.2 0.00 0.00 0.00 40 1005.2
20260504225712 20 260 4.8 4.8 0.00 0.00 0.00 41 1005.0
20260504225208 20 264 3.2 3.2 0.00 0.00 0.00 40 1005.1
20260504224705 20 227 4.8 4.8 0.00 0.00 0.00 40 1005.2
20260504224203 20 288 4.8 6.4 0.00 0.00 0.00 39 1005.1
20260504223659 20 218 4.8 6.4 0.00 0.00 0.00 40 1005.1